Location: Keppel Henge
(44.7900°N, 80.9447°W)
Time: 16:28:50
(UTC-05:00)

N. Korean satellite - Pass Details

Date: 11 October 2017
Orbit: 461 x 513 km, 97.2° (Epoch: 14 December)

Event Time Altitude Azimuth Distance (km) Brightness Sun altitude
Rises 20:37:24 0° 215° (SW) 2,556 10.6 -20.6°
Reaches altitude 10° 20:40:55 10° 252° (WSW) 1,668 10.1 -21.2°
Maximum altitude 20:41:59 11° 270° (W) 1,599 10.3 -21.4°
Drops below altitude 10° 20:43:04 10° 288° (WNW) 1,663 10.4 -21.6°
Sets 20:46:33 0° 325° (NW) 2,535 10.9 -22.2°
